• In Hungary
  • List of Countries
  • For 7 days
  • Water Temperature
  • Satellite Maps
  • Weather Map
  • News
  • Weather Widgets
  • user-avatar
    Login

    Hourly Weather Tena

    Today, 21 August, Tuesday

    Time Temperature Precipitation Wind Pressure Humidity
    00:00 +22°C° 0.1 mm 1 mps 709 mmHg 78%
    01:00 +22°C° 0.1 mm 1 mps 709 mmHg 75%
    02:00 +22°C° 0 mm 1 mps 708 mmHg 74%
    03:00 +22°C° 0 mm 1 mps 708 mmHg 73%
    04:00 +22°C° 0 mm 1 mps 708 mmHg 72%
    05:00 +22°C° 0 mm 1 mps 708 mmHg 70%
    06:00 +23°C° 0 mm 1 mps 708 mmHg 68%
    07:00 +23°C° 0 mm 1 mps 708 mmHg 66%
    08:00 +25°C° 0 mm 1 mps 709 mmHg 62%
    09:00 +26°C° 0 mm 1 mps 709 mmHg 58%
    10:00 +28°C° 0 mm 1 mps 710 mmHg 54%
    11:00 +30°C° 0 mm 1 mps 709 mmHg 50%
    12:00 +31°C° 0 mm 1 mps 709 mmHg 45%
    13:00 +33°C° 0 mm 1 mps 709 mmHg 41%
    14:00 +32°C° 0.2 mm 1 mps 708 mmHg 46%
    15:00 +31°C° 0.2 mm 1 mps 707 mmHg 51%
    16:00 +30°C° 0.2 mm 2 mps 706 mmHg 55%
    17:00 +27°C° 1 mm 1 mps 707 mmHg 67%
    18:00 +25°C° 1 mm 1 mps 707 mmHg 78%
    19:00 +23°C° 1 mm 1 mps 707 mmHg 90%
    20:00 +23°C° 0.6 mm 1 mps 708 mmHg 89%
    21:00 +22°C° 0.6 mm 1 mps 708 mmHg 88%
    22:00 +22°C° 0.6 mm 1 mps 709 mmHg 87%
    23:00 +22°C° 0.2 mm 1 mps 709 mmHg 85%

    Tomorrow, 22 August, Wednesday

    Time Temperature Precipitation Wind Pressure Humidity
    00:00 +22°C° 0.2 mm 1 mps 709 mmHg 84%
    01:00 +22°C° 0.2 mm 1 mps 709 mmHg 83%
    02:00 +22°C° 0.1 mm 1 mps 708 mmHg 82%
    03:00 +22°C° 0.1 mm 1 mps 708 mmHg 81%
    04:00 +22°C° 0.1 mm 1 mps 707 mmHg 81%
    05:00 +22°C° 0.1 mm 1 mps 708 mmHg 79%
    06:00 +22°C° 0.1 mm 1 mps 708 mmHg 78%
    07:00 +22°C° 0.1 mm 1 mps 708 mmHg 77%
    08:00 +24°C° 0.1 mm 1 mps 709 mmHg 71%
    09:00 +26°C° 0.1 mm 1 mps 709 mmHg 66%
    10:00 +27°C° 0.1 mm 1 mps 710 mmHg 60%
    11:00 +28°C° 0.1 mm 1 mps 709 mmHg 60%
    12:00 +28°C° 0.1 mm 2 mps 709 mmHg 59%
    13:00 +29°C° 0.1 mm 2 mps 708 mmHg 58%
    14:00 +29°C° 0.1 mm 1 mps 707 mmHg 60%
    15:00 +28°C° 0.1 mm 1 mps 707 mmHg 61%
    16:00 +28°C° 0.1 mm 1 mps 706 mmHg 63%
    17:00 +26°C° 0.1 mm 1 mps 706 mmHg 69%
    18:00 +25°C° 0.1 mm 1 mps 707 mmHg 76%
    19:00 +23°C° 0.1 mm 1 mps 707 mmHg 82%
    20:00 +23°C° 0.1 mm 1 mps 707 mmHg 81%
    21:00 +22°C° 0.1 mm 1 mps 708 mmHg 80%
    22:00 +22°C° 0.1 mm 1 mps 709 mmHg 79%
    23:00 +22°C° 0 mm 1 mps 708 mmHg 78%

    Day after tomorrow, 23 August, Thursday

    Time Temperature Precipitation Wind Pressure Humidity
    00:00 +22°C° 0 mm 1 mps 708 mmHg 77%
    01:00 +21°C° 0 mm 1 mps 708 mmHg 76%
    02:00 +21°C° 0 mm 1 mps 707 mmHg 74%
    03:00 +21°C° 0 mm 1 mps 707 mmHg 73%
    04:00 +21°C° 0 mm 1 mps 706 mmHg 72%
    05:00 +21°C° 0 mm 1 mps 707 mmHg 70%
    06:00 +22°C° 0 mm 1 mps 707 mmHg 68%
    07:00 +22°C° 0 mm 1 mps 708 mmHg 65%
    08:00 +25°C° 0 mm 1 mps 708 mmHg 57%
    09:00 +28°C° 0 mm 1 mps 709 mmHg 48%
    10:00 +31°C° 0 mm 1 mps 710 mmHg 39%
    11:00 +32°C° 0 mm 2 mps 709 mmHg 37%
    12:00 +34°C° 0 mm 2 mps 708 mmHg 35%
    13:00 +35°C° 0 mm 2 mps 708 mmHg 33%
    14:00 +34°C° 0 mm 2 mps 707 mmHg 36%
    15:00 +34°C° 0 mm 2 mps 706 mmHg 38%
    16:00 +32°C° 0 mm 2 mps 705 mmHg 41%
    17:00 +30°C° 0.2 mm 2 mps 705 mmHg 52%
    18:00 +27°C° 0.2 mm 1 mps 706 mmHg 64%
    19:00 +24°C° 0.2 mm 1 mps 706 mmHg 76%
    20:00 +24°C° 0.5 mm 1 mps 706 mmHg 78%
    21:00 +23°C° 0.5 mm 1 mps 707 mmHg 80%
    22:00 +22°C° 0.5 mm 1 mps 708 mmHg 83%
    23:00 +22°C° 0.3 mm 1 mps 707 mmHg 82%

    24 August, Friday

    Time Temperature Precipitation Wind Pressure Humidity
    00:00 +22°C° 0.3 mm 1 mps 707 mmHg 81%
    01:00 +22°C° 0.3 mm 1 mps 707 mmHg 80%
    02:00 +22°C° 0 mm 1 mps 707 mmHg 79%
    03:00 +22°C° 0 mm 1 mps 706 mmHg 77%
    04:00 +22°C° 0 mm 1 mps 706 mmHg 76%
    05:00 +22°C° 0 mm 1 mps 706 mmHg 73%
    06:00 +22°C° 0 mm 1 mps 707 mmHg 70%
    07:00 +23°C° 0 mm 1 mps 707 mmHg 67%
    08:00 +26°C° 0 mm 1 mps 708 mmHg 58%
    09:00 +28°C° 0 mm 1 mps 708 mmHg 50%
    10:00 +31°C° 0 mm 1 mps 709 mmHg 41%
    11:00 +32°C° 0 mm 2 mps 708 mmHg 39%
    12:00 +34°C° 0 mm 2 mps 707 mmHg 38%
    13:00 +35°C° 0 mm 2 mps 707 mmHg 36%
    14:00 +35°C° 0.1 mm 2 mps 706 mmHg 39%
    15:00 +34°C° 0.1 mm 2 mps 706 mmHg 42%
    16:00 +32°C° 0.1 mm 2 mps 705 mmHg 44%
    17:00 +30°C° 0.4 mm 2 mps 706 mmHg 55%
    18:00 +27°C° 0.4 mm 1 mps 706 mmHg 66%
    19:00 +25°C° 0.4 mm 1 mps 706 mmHg 76%
    20:00 +24°C° 1.1 mm 1 mps 707 mmHg 79%
    21:00 +24°C° 1.1 mm 1 mps 707 mmHg 82%
    22:00 +23°C° 1.1 mm 1 mps 708 mmHg 84%
    23:00 +23°C° 0.2 mm 1 mps 707 mmHg 83%

    25 August, Saturday

    Time Temperature Precipitation Wind Pressure Humidity
    00:00 +22°C° 0.2 mm 1 mps 707 mmHg 82%
    01:00 +22°C° 0.2 mm 1 mps 707 mmHg 80%
    02:00 +22°C° 0 mm 1 mps 707 mmHg 78%
    03:00 +22°C° 0 mm 1 mps 707 mmHg 75%
    04:00 +22°C° 0 mm 1 mps 706 mmHg 73%
    05:00 +22°C° 0.1 mm 1 mps 707 mmHg 72%
    06:00 +22°C° 0.1 mm 1 mps 707 mmHg 71%
    07:00 +23°C° 0.1 mm 1 mps 708 mmHg 69%
    08:00 +25°C° 0.2 mm 1 mps 708 mmHg 64%
    09:00 +27°C° 0.2 mm 1 mps 709 mmHg 58%
    10:00 +29°C° 0.2 mm 1 mps 709 mmHg 52%
    11:00 +30°C° 0.1 mm 1 mps 709 mmHg 49%
    12:00 +31°C° 0.1 mm 1 mps 708 mmHg 45%
    13:00 +33°C° 0.1 mm 1 mps 708 mmHg 42%
    14:00 +31°C° 0.1 mm 1 mps 707 mmHg 47%
    15:00 +30°C° 0.1 mm 1 mps 707 mmHg 53%
    16:00 +29°C° 0.1 mm 1 mps 706 mmHg 58%
    17:00 +27°C° 1.2 mm 1 mps 707 mmHg 67%
    18:00 +25°C° 1.2 mm 1 mps 707 mmHg 76%
    19:00 +23°C° 1.2 mm 1 mps 707 mmHg 85%
    20:00 +23°C° 0.5 mm 1 mps 708 mmHg 83%
    21:00 +23°C° 0.5 mm 1 mps 708 mmHg 81%
    22:00 +22°C° 0.5 mm 1 mps 708 mmHg 79%
    23:00 +22°C° 0 mm 1 mps 708 mmHg 77%

    26 August, Sunday

    Time Temperature Precipitation Wind Pressure Humidity
    00:00 +22°C° 0 mm 1 mps 708 mmHg 75%
    01:00 +22°C° 0 mm 1 mps 708 mmHg 72%
    02:00 +22°C° 0 mm 1 mps 708 mmHg 70%
    03:00 +22°C° 0 mm 1 mps 707 mmHg 68%
    04:00 +22°C° 0 mm 1 mps 707 mmHg 66%
    05:00 +22°C° 0 mm 1 mps 708 mmHg 63%
    06:00 +23°C° 0 mm 1 mps 708 mmHg 59%
    07:00 +23°C° 0 mm 1 mps 709 mmHg 56%
    08:00 +26°C° 0 mm 1 mps 709 mmHg 48%
    09:00 +29°C° 0 mm 1 mps 709 mmHg 39%
    10:00 +32°C° 0 mm 1 mps 710 mmHg 31%
    11:00 +33°C° 0 mm 1 mps 709 mmHg 31%
    12:00 +34°C° 0 mm 2 mps 708 mmHg 30%
    13:00 +35°C° 0 mm 2 mps 708 mmHg 30%
    14:00 +34°C° 0 mm 2 mps 707 mmHg 31%
    15:00 +34°C° 0 mm 2 mps 706 mmHg 33%
    16:00 +32°C° 0 mm 1 mps 706 mmHg 35%
    17:00 +30°C° 0 mm 1 mps 706 mmHg 44%
    18:00 +27°C° 0 mm 1 mps 707 mmHg 52%
    19:00 +25°C° 0 mm 1 mps 707 mmHg 60%
    20:00 +24°C° 0.9 mm 1 mps 707 mmHg 65%
    21:00 +23°C° 0.9 mm 1 mps 708 mmHg 70%
    22:00 +22°C° 0.9 mm 1 mps 708 mmHg 74%
    23:00 +22°C° 0.3 mm 1 mps 708 mmHg 75%
    Show more